Aérodrome :
LOGIN :

S'inscrire | Disclaimer

   EN    FR    IT 

 










Légende :    VFR   VFR Marginal   IFR   IFR Intensif   IFR Très Intensif
Visi : 
Plafond : 
>= 8 km
>= 3000ft
5 à 8 km
1000 à 3000 ft
1500m à 5 km
500 à 1000 ft
800 à 1500m
200 à 500 ft
< 800m
< 200 ft
Symboles :   Orages  Brouillard  Fortes neiges  Fortes précipitations  Vent > 20 kt
SIGMETs :   Divers  Orages  Givrage  Turbulence  Onde Orograph.  Cendres Volcan.







- Altitude de l'aérodrome : 1306 ft
- Code IATA : ACH


LSZR - Alten Rhein

DERNIER METAR :
  • 162320Z AUTO VRB02KT 5000 BR NCD 07/06 Q1026

METARs EXPIRÉS :
  • 162250Z AUTO 11004KT CAVOK 08/08 Q1026 REDZ
  • 162220Z AUTO 20002KT 7000 NCD 07/07 Q1026
  • 162150Z AUTO VRB02KT CAVOK 09/09 Q1026
  • 162120Z AUTO 19003KT CAVOK 09/08 Q1026
  • 162050Z AUTO 19003KT CAVOK 08/08 Q1026

TAF TAF LSZR
Valide du 16 à 15h jusqu'au 17 à 00h UTC


161425Z 1615/1624 VRB03KT 9999 FEW002
BECMG 1615/1617 CAVOK
BECMG 1618/1621 7000 NSC
BECMG 1621/1624 3000 BR NSC
ATIS : +41 71 858 51 66
Pas de NOTAMs connus pour ce terrain.



MET'MAP, la Météo Aéronautique d'un coup d'oeil ! - Copyright ORBIFLY Décembre 2007 - Disclaimer

ORBIFLY MET'MAP TEAM :

Programmation & Développement : Alexandra Zaïnal
Conception & Développement : Baudouin d'Aumeries
Co-Programmation & Développement : Marc-Olivier Méhu
Soutien technique & logistique : Manuel Goepfert

Contact : metmap@orbifly.com




SOURCES & CREDITS :

   NOAA